Home   Weather   Inverness   Past weeks

Flag for USA Past Weather in Inverness, Florida, USA — Yesterday and Last 2 Weeks

Now
77 °F

Warm.


Feels Like: 78 °F
Forecast: 76 / 93 °F
Wind: No wind

Location: The Villages

Current Time: Aug 20, 2017 at 4:14:27 am

Latest Report: Aug 20, 2017 at 3:10 am


Visibility: 10 mi

Pressure: 29.89 "Hg

Humidity: 100%

Dew Point: 77 °F

Location of InvernessLocation

Past Weather in Inverness — Graph

°F

Inverness Temperature Yesterday

Maximum temperature yesterday: 93 °F (at 2:50 pm)
Minimum temperature yesterday: 73 °F (at 1:30 am)
Average temperature yesterday: 81 °F

High & Low Weather Summary for the Past Weeks

 TemperatureHumidityPressure
High93 °F (Aug 6, 1:50 pm)100% (Aug 5, 2:30 am)30.04 "Hg (Aug 5, 2:30 am)
Low72 °F (Aug 7, 10:10 pm)46% (Aug 9, 3:50 pm)29.83 "Hg (Aug 14, 3:50 pm)
Average83 °F86%29.94 "Hg
* Reported Aug 5 2:10 am — Aug 20 2:50 am, Inverness. Weather by CustomWeather, © 2017

Note: Actual official high and low records may vary slightly from our data, if they occured in-between our weather recording intervals... More about our weather records

Advertising

Inverness Weather History for the Previous 24 Hours

Scroll right to see more
 ConditionsComfort  
Time TempWeatherWind HumidityBarometerVisibility
2:50 am
Sun, Aug 20
77 °FWarm.No wind100%29.90 "Hg10 mi
2:30 am77 °FWarm.No wind100%29.91 "Hg10 mi
2:10 am77 °FWarm.No wind100%29.91 "Hg10 mi
1:50 am77 °FWarm.No wind100%29.91 "Hg10 mi
1:30 am79 °FWarm.No wind100%29.91 "Hg10 mi
1:10 am79 °FWarm.No wind100%29.92 "Hg10 mi
12:50 am79 °FWarm.No wind100%29.91 "Hg10 mi
12:10 am79 °FWarm.No wind100%29.91 "Hg10 mi
11:50 pm
Sat, Aug 19
79 °FWarm.No wind100%29.91 "Hg10 mi
11:30 pm81 °FWarm.No wind89%29.91 "Hg10 mi
11:10 pm79 °FWarm.No wind100%29.91 "Hg10 mi
10:50 pm79 °FWarm.No wind94%29.91 "Hg10 mi
10:10 pm79 °FWarm.N/A94%29.91 "Hg10 mi
9:50 pm79 °FWarm.No wind94%29.90 "Hg10 mi
9:10 pm79 °FWarm.No wind94%29.88 "Hg10 mi
8:50 pm81 °FWarm.No wind89%29.88 "Hg10 mi
8:10 pm81 °FWarm.N/A89%29.86 "Hg10 mi
7:50 pm79 °FWarm.N/A89%29.85 "Hg10 mi
7:10 pm79 °FWarm.N/A89%29.85 "Hg10 mi
6:50 pm79 °FHaze.N/A89%29.85 "Hg1 mi
6:30 pm90 °FHot.N/A71%29.84 "Hg9 mi
6:10 pm91 °FHot.No wind67%29.84 "Hg9 mi
5:50 pm91 °FHot.N/A67%29.84 "Hg10 mi
5:30 pm91 °FHaze.N/A67%29.84 "Hg6 mi
5:10 pm91 °FHot.N/A67%29.84 "Hg10 mi
4:50 pm91 °FHot.N/A67%29.84 "Hg9 mi
4:30 pm91 °FHot.N/A67%29.84 "Hg7 mi
4:10 pm90 °FHot.8 mph75%29.85 "Hg8 mi
3:50 pm90 °FHot.N/A71%29.86 "Hg10 mi
3:10 pm91 °FHaze.N/A63%29.87 "Hg5 mi
2:50 pm93 °FExtremely hot.No wind63%29.87 "Hg8 mi
2:10 pm90 °FHot.N/A71%29.89 "Hg10 mi
1:50 pm90 °FHot.N/A71%29.90 "Hg8 mi
1:30 pm91 °FHot.No wind71%29.90 "Hg8 mi
1:10 pm90 °FHot.No wind71%29.91 "Hg10 mi
12:50 pm88 °FWarm.N/A75%29.91 "Hg7 mi
12:30 pm88 °FWarm.No wind75%29.91 "Hg10 mi
12:10 pm88 °FHaze.No wind79%29.92 "Hg6 mi
11:50 am88 °FWarm.No wind79%29.92 "Hg7 mi
11:10 am86 °FWarm.N/A84%29.92 "Hg9 mi
10:50 am84 °FWarm.3 mph89%29.93 "Hg7 mi
10:30 am84 °FWarm.No wind94%29.93 "Hg10 mi
10:10 am84 °FWarm.No wind94%29.93 "Hg8 mi
9:50 am82 °FWarm.No wind100%29.92 "Hg9 mi
9:30 am82 °FFog.No wind100%29.92 "Hg6 mi
9:10 am81 °FWarm.No wind100%29.92 "Hg8 mi
8:50 am79 °FWarm.No wind100%29.92 "Hg10 mi
8:30 am77 °FWarm.No wind100%29.92 "Hg10 mi
7:50 am75 °FMild.No wind100%29.91 "Hg9 mi
7:30 am73 °FFog.No wind100%29.90 "Hg3 mi
7:10 am73 °FFog.No wind100%29.90 "Hg2 mi
6:50 am73 °FFog.No wind100%29.90 "Hg3 mi
6:30 am73 °FFog.No wind100%29.89 "Hg5 mi
6:10 am73 °FMild.No wind100%29.89 "HgN/A
5:50 am73 °FFog.No wind100%29.90 "Hg5 mi
5:30 am73 °FMild.No wind100%29.90 "Hg7 mi
5:10 am73 °FFog.No wind100%29.90 "Hg2 mi
4:50 am73 °FMild.No wind100%29.89 "Hg9 mi
4:30 am73 °FFog.No wind100%29.89 "Hg0 mi
4:10 am73 °FFog.No wind100%29.89 "Hg6 mi
Weather by CustomWeather, © 2017

See weather overviewHow to use our weather pages